{"data":{"norad_id":69990,"intl_designator":"2026-159R","name":"STARLINK-38070","alt_names":[],"object_type":"PAYLOAD","status":"ACTIVE","operator":null,"country":"US","launch_date":"2026-07-11","launch_site_code":"AFWTR","launch_vehicle":null,"mission":null,"orbit_class":"UNKNOWN","rcs_meters":null,"size_class":null,"mass_kg":null,"dimensions":null,"purposes":["comms"],"wikipedia_slug":null,"has_3d_model":false,"image_url":null,"decayed_at":null,"tle_current":{"epoch":"2026-09-20T00:00:02.998944Z","epoch_age_seconds":61016,"freshness":"FRESH","line1":"1 69990U 26159R   26263.00003471 -.01915721  00000+0 -38535-1 0  9992","line2":"2 69990  97.2856 104.8339 0001843 106.6796 163.9419 15.49679387  5963","mean_motion":15.49679387,"eccentricity":0.0001843,"inclination_deg":97.2856,"raan_deg":104.8339,"arg_perigee_deg":106.6796,"mean_anomaly_deg":163.9419,"bstar":-0.038535,"rev_number":596,"period_min":92.922446544745,"perigee_km":416.41076324317,"apogee_km":418.91569520766,"semimajor_km":6795.8002292254,"source":"CELESTRAK","updated_at":"2026-09-20T09:00:44.330920Z"}}}